Location: Milis
(40.0500°N, 8.6333°E)
Time: 02:42:15
(UTC+00:00)

Daily predictions for brighter satellites

Satellite Brightness Start Highest point End
(mag) Time Altitude Azimuth Time Altitude Azimuth Time Altitude Azimuth
Cosmos 1867 4.3 00:05:01 42° WNW 00:05:40 44° NW 00:10:55 10° NNE
ADEOS II 4.5 00:04:44 10° ENE 00:06:25 11° E 00:07:44 10° ESE
Cosmos 2298 Rocket 4.0 00:07:41 78° NNW 00:07:41 78° NNW 00:12:42 10° NNE
USA 306 4.1 00:11:52 40° NNE 00:11:52 40° NNE 00:14:41 10° NE
USA 307 4.0 00:15:20 41° NE 00:15:20 41° NE 00:18:09 10° NE
Thor Agena Rocket 3.9 00:10:24 10° NNE 00:15:34 55° E 00:15:34 55° E
SL-16 R/B 3.5 00:16:08 26° ESE 00:16:28 26° ESE 00:21:06 10° NE
ATLAS CENTAUR R/B 3.8 00:12:33 10° NW 00:13:59 17° WNW 00:13:59 17° WNW
Cosmos 1980 3.5 00:20:38 83° W 00:20:46 84° WNW 00:26:27 10° NNE
Cosmos 2333 Rocket 4.2 00:19:41 15° W 00:22:00 19° NW 00:25:57 10° N
ATLAS 5 CENTAUR R/B 2.5 00:15:25 10° NW 00:24:39 81° WNW 00:24:39 81° WNW
CZ-4C R/B 3.0 00:18:22 10° NW 00:25:54 67° WSW 00:27:53 53° S
Cosmos 1455 Rocket 4.2 00:21:53 10° N 00:26:04 38° ENE 00:26:09 38° E
Cosmos 332 Rocket 4.0 00:28:23 66° ENE 00:28:23 66° ENE 00:32:40 10° NNE
NOSS 0 Rocket 4.2 00:29:23 52° W 00:30:24 58° WNW 00:36:35 10° NNE
USA 32 3.9 00:35:15 76° W 00:35:15 76° W 00:40:30 10° N
Meteor 1-24 Rocket 4.4 00:34:53 41° ESE 00:35:51 44° E 00:41:03 10° NNE
Cosmos 1975 Rocket 3.4 00:39:39 63° NE 00:39:39 63° NE 00:43:38 10° NNE
Meteor 2-10 Rocket 3.6 00:34:57 10° N 00:40:37 79° E 00:41:17 68° SE
Cosmos 1745 Rocket 4.4 00:38:22 10° NNW 00:44:13 45° W 00:44:35 44° W
USA 308 3.8 00:44:46 43° NNW 00:44:46 43° NNW 00:48:40 10° NE
Cosmos 2219 Rocket 4.3 00:42:56 13° WNW 00:45:22 16° NW 00:48:45 10° NNW
Cosmos 839 Rocket 4.2 00:39:32 10° NNW 00:46:04 83° WSW 00:49:12 39° SSE
Cosmos 1025 Rocket 3.3 00:47:03 62° ENE 00:47:03 62° ENE 00:50:58 10° NNE
Cosmos 1455 4.1 00:49:04 10° NNE 00:52:05 23° ENE 00:52:38 22° E
Meteor 2-5 Rocket 3.7 00:55:37 61° S 00:56:41 81° E 01:02:23 10° NNE
GP-B 3.6 00:54:17 10° N 00:58:07 51° WNW 00:58:07 51° WNW
Lacrosse 5 1.7 00:58:31 79° S 00:58:44 81° SE 01:03:51 10° NE
USA 267 3.9 01:02:15 35° WSW 01:02:15 35° WSW 01:07:04 10° WNW
CZ-2D R/B 2.1 00:56:11 10° NNE 01:01:33 73° ESE 01:02:28 59° SSE
Cosmos 1300 4.3 00:59:26 10° NNW 01:01:27 26° NW 01:01:27 26° NW
Cosmos 1544 Rocket 3.8 01:08:05 10° N 01:12:28 63° E 01:13:10 54° SE
Cosmos 2237 Rocket 3.2 01:11:28 30° W 01:12:54 35° WNW 01:18:06 10° N
USA 229 DEB 4.1 01:05:55 10° NW 01:13:07 50° WSW 01:15:06 42° SSW
USA 229 4.1 01:06:00 10° NW 01:13:13 51° WSW 01:15:15 42° SSW
SL-16 R/B 2.6 01:14:42 30° SSE 01:17:58 79° ENE 01:24:13 10° NNW
Helios 1A 4.5 01:16:52 19° ESE 01:19:17 34° ENE 01:23:06 10° N
AQUA 3.9 01:16:05 10° NNE 01:20:51 70° ESE 01:21:49 54° SSE
Lacrosse 5 rocket 1.2 01:21:54 76° ENE 01:21:54 76° ENE 01:25:38 10° NE
SME Rocket 3.7 01:24:34 40° WNW 01:24:34 40° WNW 01:28:21 10° NNW
SAR-Lupe-2 3.7 01:20:47 10° NNE 01:24:09 69° ENE 01:24:09 69° ENE
Resurs 1-4 Rocket 2.3 01:25:30 10° N 01:30:40 59° WNW 01:31:56 46° WSW
Cosmos 2074 Rocket 3.9 01:24:32 10° N 01:30:52 89° W 01:33:59 32° S
Cosmos 2297 4.0 01:29:47 10° NNW 01:35:32 69° ENE 01:41:14 10° SSE
Cosmos 1943 Rocket 2.1 01:29:51 10° NNW 01:35:34 88° ENE 01:39:28 21° SSE
Cosmos 1703 4.1 01:35:52 36° SE 01:36:54 45° E 01:40:40 10° NNE
CRYOSAT 2 4.3 01:38:47 43° S 01:40:24 87° W 01:45:19 10° N
Cosmos 2184 Rocket 3.9 01:39:30 10° NNW 01:45:44 71° W 01:48:45 32° S
Cosmos 2278 Rocket 3.8 01:42:21 10° NW 01:45:23 19° W 01:45:23 19° W
ADEOS II 2.0 01:41:23 10° N 01:46:40 81° WNW 01:48:40 39° SSW
IDEFIX/ARIANE 42P 2.5 01:42:17 10° NNE 01:47:36 85° ESE 01:49:51 36° S
Cosmos 1610 Rocket 4.5 01:43:22 10° N 01:49:33 81° E 01:54:08 19° S
Cosmos 292 Rocket 3.7 01:48:10 44° SSW 01:49:44 87° ESE 01:54:33 10° NNE
FALCON 9 R/B 4.5 01:26:43 10° WNW 01:55:55 47° SW 02:03:52 10° SSE
NPP 4.3 01:53:35 10° N 01:58:36 41° WNW 02:00:36 30° WSW
SL-16 R/B 2.9 01:58:00 29° WSW 02:00:19 42° WNW 02:05:42 10° N
Cosmos 2369 Rocket 2.9 01:55:19 10° NNW 02:00:48 53° ENE 02:06:15 10° SE
OAO 2 Rocket 4.4 02:02:22 25° S 02:03:05 26° SSE 02:07:11 10° ESE
Meteor 1-28 Rocket 3.2 02:03:36 48° SSW 02:04:21 59° W 02:08:03 10° NNW
Cosmos 2228 3.2 02:00:05 10° N 02:04:27 71° E 02:07:33 18° SSE
Cosmos 614 Rocket 3.9 01:59:15 10° NNW 02:04:28 83° WSW 02:09:12 13° SSE
IRS-1D 3.7 01:59:16 10° NNE 02:04:37 73° ESE 02:07:55 23° S
EO 1 Del DPAF 3.2 02:01:17 10° N 02:04:43 54° WNW 02:05:16 48° WSW
Cosmos 2251 Rocket 4.0 02:01:14 10° NNW 02:06:29 62° ENE 02:11:41 10° SSE
COSMOS 2455 2.9 02:04:48 30° SW 02:07:51 67° WNW 02:13:53 10° NNE
Cosmos 1536 Rocket 4.1 02:08:03 34° WSW 02:09:16 43° WNW 02:13:28 10° N
[s.n.52708] 4.3 02:16:55 22° SE 02:17:18 22° SE 02:19:36 10° ENE
[s.n.52707] 4.3 02:17:02 22° SE 02:17:25 22° SE 02:19:43 10° ENE
[s.n.52703] 4.3 02:17:08 22° SE 02:17:32 22° SE 02:19:50 10° ENE
[s.n.52705] 4.3 02:17:14 22° SE 02:17:38 23° SE 02:19:57 10° ENE
[s.n.52706] 4.3 02:17:21 22° SE 02:17:44 23° SE 02:20:03 10° ENE
[s.n.52701] 4.3 02:17:27 22° SE 02:17:51 23° SE 02:20:10 10° ENE
[s.n.52704] 4.3 02:17:33 22° SE 02:17:58 23° SE 02:20:17 10° ENE
[s.n.52699] 4.3 02:17:40 22° SSE 02:18:04 23° SE 02:20:24 10° ENE
[s.n.52702] 4.3 02:17:46 22° SSE 02:18:12 23° SE 02:20:31 10° ENE
[s.n.52697] 4.3 02:17:53 22° SSE 02:18:18 23° SE 02:20:37 10° ENE
[s.n.52700] 4.3 02:17:59 22° SSE 02:18:24 23° SE 02:20:44 10° ENE
[s.n.52695] 4.3 02:18:05 22° SSE 02:18:31 23° SE 02:20:51 10° ENE
Nadezhda 1 Rocket 4.3 02:15:06 26° SW 02:18:34 51° WNW 02:24:42 10° N
[s.n.52698] 4.3 02:18:11 22° SSE 02:18:38 23° SE 02:20:58 10° ENE
[s.n.52693] 4.3 02:18:18 22° SSE 02:18:45 23° SE 02:21:04 10° ENE
[s.n.52696] 4.3 02:18:24 22° SSE 02:18:51 23° SE 02:21:11 10° ENE
[s.n.52691] 4.3 02:18:31 22° SSE 02:18:57 23° SE 02:21:18 10° ENE
[s.n.52689] 4.3 02:18:37 22° SSE 02:19:04 23° SE 02:21:25 10° ENE
[s.n.52694] 4.2 02:18:44 22° SSE 02:19:11 23° SE 02:21:32 10° ENE
[s.n.52692] 4.2 02:18:50 22° SSE 02:19:17 23° SE 02:21:39 10° ENE
[s.n.52687] 4.2 02:18:56 22° SSE 02:19:24 24° SE 02:21:46 10° ENE
[s.n.52685] 4.2 02:19:03 23° SSE 02:19:30 24° SE 02:21:52 10° ENE
[s.n.52690] 4.2 02:19:09 23° SSE 02:19:38 24° SE 02:21:59 10° ENE
[s.n.52688] 4.2 02:19:16 23° SSE 02:19:44 24° SE 02:22:06 10° ENE
[s.n.52683] 4.2 02:19:22 23° SSE 02:19:51 24° SE 02:22:13 10° ENE
COSMOS 2441 4.3 02:15:00 10° N 02:19:52 78° WNW 02:22:48 24° SSW
[s.n.52686] 4.2 02:19:29 23° SSE 02:19:58 24° SE 02:22:20 10° ENE
[s.n.52681] 4.2 02:19:36 23° SSE 02:20:05 24° SE 02:22:27 10° ENE
[s.n.52679] 4.2 02:19:42 23° SSE 02:20:11 24° SE 02:22:34 10° ENE
[s.n.52684] 4.2 02:19:48 23° SSE 02:20:18 24° SE 02:22:41 10° ENE
[s.n.52682] 4.2 02:19:55 23° SSE 02:20:24 24° SE 02:22:47 10° ENE
[s.n.52677] 4.2 02:20:01 23° SSE 02:20:32 24° SE 02:22:54 10° ENE
[s.n.52680] 4.2 02:20:08 23° SSE 02:20:39 24° SE 02:23:02 10° ENE
[s.n.52675] 4.2 02:20:14 23° SSE 02:20:45 24° SE 02:23:08 10° ENE
[s.n.52678] 4.2 02:20:21 23° SSE 02:20:52 25° SE 02:23:15 10° ENE
[s.n.52673] 4.2 02:20:29 23° SSE 02:21:00 25° SE 02:23:23 10° ENE
[s.n.52676] 4.2 02:20:35 23° SSE 02:21:06 25° SE 02:23:30 10° ENE
[s.n.52671] 4.2 02:20:42 23° SSE 02:21:13 25° SE 02:23:37 10° ENE
[s.n.52669] 4.2 02:20:48 23° SSE 02:21:20 25° SE 02:23:43 10° ENE
[s.n.52674] 4.2 02:20:55 23° SSE 02:21:27 25° SE 02:23:51 10° ENE
[s.n.52672] 4.2 02:21:00 23° SSE 02:21:32 25° SE 02:23:57 10° ENE
[s.n.52667] 4.1 02:21:08 23° SSE 02:21:41 25° SE 02:24:05 10° ENE
[s.n.52665] 4.1 02:21:15 23° SSE 02:21:48 25° SE 02:24:13 10° ENE
[s.n.52670] 4.1 02:21:21 23° SSE 02:21:54 25° SE 02:24:20 10° ENE
[s.n.52668] 4.1 02:21:28 23° SSE 02:22:01 25° SE 02:24:26 10° ENE
[s.n.52666] 4.1 02:21:35 24° SSE 02:22:08 25° SE 02:24:34 10° ENE
[s.n.52663] 4.1 02:21:41 24° SSE 02:22:15 25° SE 02:24:41 10° ENE
[s.n.52662] 4.1 02:21:48 24° SSE 02:22:22 26° SE 02:24:48 10° ENE
[s.n.52664] 4.1 02:21:55 24° SSE 02:22:29 26° SE 02:24:55 10° ENE
[s.n.52661] 4.1 02:22:02 24° SSE 02:22:36 26° SE 02:25:02 10° ENE
[s.n.52660] 4.1 02:22:08 24° SSE 02:22:44 26° SE 02:25:09 10° ENE
[s.n.52656] 4.1 02:22:15 24° SSE 02:22:50 26° SE 02:25:16 10° ENE
[s.n.52658] 4.1 02:22:22 24° SSE 02:22:57 26° SE 02:25:24 10° ENE
[s.n.52659] 4.1 02:22:28 24° SSE 02:23:04 26° SE 02:25:31 10° ENE
[s.n.52657] 4.1 02:22:36 24° SSE 02:23:11 26° SE 02:25:38 10° ENE
Cosmos 1603 3.9 02:19:47 20° S 02:23:43 71° ESE 02:29:22 10° NNE
MOS 1 Rocket 4.0 02:23:22 26° WSW 02:24:08 28° W 02:27:49 10° NW
MSX 4.0 02:18:57 10° N 02:24:38 62° WNW 02:28:24 22° SW
ATLAS 2A CENTAUR R/B 4.5 02:16:01 19° SW 02:26:45 36° S 02:34:00 10° ESE
Cosmos 1455 3.7 02:24:43 10° NW 02:27:22 19° W 02:27:22 19° W
Cosmos 1271 Rocket 3.4 02:27:52 10° NNW 02:31:23 35° W 02:32:44 26° SW
Cosmos 1606 Rocket 3.5 02:31:13 10° N 02:35:38 79° W 02:39:58 10° S
ALOS 3.1 02:34:27 10° NNE 02:38:59 48° E 02:43:27 10° S
CZ-2D R/B 4.1 02:37:58 10° NNW 02:40:55 15° WNW 02:43:47 10° W
CZ-2C R/B 3.2 02:36:12 10° NNE 02:41:11 51° E 02:45:59 10° S
Lacrosse 5 3.7 02:38:09 10° W 02:42:14 23° NNW 02:46:19 10° NNE
Helios 1B rocket 2.3 02:41:40 10° N 02:45:45 82° WNW 02:49:10 14° SSW
Cosmos 2366 rocket 4.1 02:41:50 10° N 02:48:01 82° E 02:54:14 10° S
Cosmos 2341 Rocket 4.1 02:42:12 10° NNW 02:48:34 69° W 02:54:52 10° S
BREEZE-M DEB (TANK) 2.8 02:47:13 15° WSW 02:51:04 61° NNW 02:53:27 10° NE
Meteor 1-11 4.4 02:46:07 10° S 02:51:55 80° E 02:57:43 10° NNE
Meteor 2-1 Rocket 4.3 02:47:24 10° NNW 02:53:05 62° W 02:58:35 10° S
Cosmos 1371 Rocket 4.0 02:48:55 11° SSW 02:53:51 83° ESE 02:59:03 10° NNE
Cosmos 407 Rocket 3.5 02:49:05 10° NNW 02:54:26 88° WSW 02:59:40 10° SSE
Helios 1A 4.5 02:53:26 16° WSW 02:54:51 19° W 02:57:52 10° NW
Cosmos 1328 4.2 02:52:13 17° SW 02:54:57 43° W 02:58:46 10° N
Cosmos 1943 3.4 02:50:42 16° SW 02:55:14 57° WNW 03:00:51 10° NNE
SL-8 Rocket 4.0 02:48:59 10° N 02:55:18 73° W 03:01:34 10° S
Lacrosse 5 rocket 3.5 02:58:33 10° WNW 03:01:12 17° NNW 03:03:58 10° NNE
Genesis I 3.7 02:57:48 10° NNW 03:01:51 66° ENE 03:05:46 10° SE
SL-16 R/B 4.1 02:59:47 12° WSW 03:02:11 15° W 03:05:38 10° NW
Meteor 1-29 3.5 03:01:34 10° NNE 03:04:47 55° E 03:07:58 10° S
Cosmos 1140 Rocket 3.5 03:00:08 10° NNW 03:05:21 66° WSW 03:10:31 10° S
Lacrosse 4 Rocket 2.5 03:03:28 10° S 03:07:32 42° ESE 03:11:32 10° NE
Cosmos 1892 Rocket 4.1 03:04:42 11° SSW 03:08:42 44° WNW 03:13:00 10° N
SeaSat 1 3.0 03:05:46 10° NE 03:10:38 58° ESE 03:15:29 10° SSW
IRS-1C 4.1 03:07:21 10° NNE 03:12:43 82° WNW 03:18:02 10° SSW
SL-08 R/B 4.2 03:08:44 10° SSE 03:13:10 51° ENE 03:17:41 10° N
Cosmos 1726 Rocket 4.2 03:11:04 10° NNW 03:15:06 36° W 03:19:06 10° SSW
Cosmos 1943 Rocket 4.0 03:16:40 10° WNW 03:18:26 11° W 03:20:11 10° WSW
FENGYUN 3A 3.8 03:13:34 10° N 03:18:51 59° WNW 03:24:07 10° SSW
Cosmos 2263 4.5 03:14:19 10° NW 03:19:45 47° WSW 03:25:11 10° S
Cosmos 1825 2.3 03:19:46 10° S 03:23:28 77° E 03:27:11 10° N
ADEOS II 4.2 03:24:28 10° NW 03:25:27 10° WNW 03:26:25 10° WNW
Cosmos 1624 Rocket 4.3 03:22:20 10° SW 03:27:31 53° WNW 03:32:43 10° N
GPS 2-04 Rocket1 3.3 03:24:23 10° WSW 03:27:33 34° S 03:30:50 10° ESE
ARIANE 5 R/B 2.5 03:24:05 10° N 03:29:07 68° WNW 03:34:04 10° SSW
CZ-2C R/B 4.0 03:26:37 10° SE 03:31:29 43° ENE 03:36:26 10° N
Cosmos 1633 3.8 03:31:27 10° SSE 03:34:48 43° E 03:38:11 10° NNE
Cosmos 1484 Rocket 3.1 03:31:17 10° NNE 03:35:09 72° ESE 03:39:03 10° S
MOS 1-B Rocket 4.5 03:30:41 10° SSW 03:35:44 33° W 03:40:50 10° NNW
Nadezhda 3 Rocket 4.1 03:30:18 10° S 03:36:37 90° SE 03:42:56 10° N
